Погода в Кызыле

Погода в Кызыле : погода сейчас, прогноз погоды и архив. Всё, что Вы хотите узнать о погоде в Кызыле!

Хотите узнать прогноз погоды в Кызыле? Тогда Вам сюда: Погода в Кызыле

Поиск расширенной информации на нашем сайте:

Другие новости

Новости СМИ2

Главная страница сайта

Новости сайта

03.07.2017

Напоминаем, что на нашем специализированном сайте Метеоцентр.Азия вы можете получить высокодетализированные автоматические прогнозы погоды по пунктам России, СНГ и мира в авиационном формате (включающие направление и скорость ветра, видимость, явления погоды, количество и форму облачности, нижнюю и верхнюю границу облачности).


Погода в Кызыле - сегодня

Время (UTC), дата Ветер
(°,м/с) 
Видим.   Явления Облачность Т
(°С)
Тd
(°С)
f(%) Тe
(°С)
Pmin
(гПа)
dP
(гПа)
Po
(мм)
O2
(г/м3)
Тmin Tmax R s Состояние
почвы
15 17.06.18 060 (СВ) 20000 м    ясно 
+21.2 +6.7 39 +21  1007.4  703  262           
18 17.06.18 040 (СВ) 10 км    ясно 
+16.8 +5.4 47 +18  1009.5  0.9  703  266           
21 17.06.18 070 (В) 20000 м    3/3 1000 м 
[Sc]
+14 +6.1 59 +15  1010.8  0.7  704  269           
00 18.06.18 тихо ()   20000 м    8/5 1000 м средняя, верхняя 
[Cu med, cong|Ac trans|Ci fib]
+16.2 +6.9 54 +16  1010.5  0.1  704  267  +12.2        сухая 
03 18.06.18 350 (С) 20000 м    9/1 1000 м средняя, верхняя 
[Ac trans|Ci fib]
+23.2 +6.2 33 +23  1007.2  -1.4  703  260           
06 18.06.18 110 (В) 20000 м    9/0 верхняя 
[Ci sp]
+30.6 +2.6 17 +31  1002.9  -2.5  701  254           
09 18.06.18 040 (СВ) 20000 м    8/0 средняя, верхняя 
[Ac trans|Ci sp]
+32 +3.1 16 +32  1000.2  -2.2  699  252           
12 18.06.18 130 (ЮВ) 20000 м    9/8 1000 м кучево-дожд., средняя, верхняя 
[Cb cap|Ac trans|Ci sp]
+30.9 +5.7 20 +31  998.9  -1.4  698  252    +32.7       
15 18.06.18 350 (С) 10 км    9/5 1000 м кучево-дожд., средняя, верхняя 
[Cb cap|Ac trans|Ci fib]
+25.4 +5.5 28 +25  1000  -0.2  698  256           
18 18.06.18 тихо ()   10 км    6/3 1000 м верхняя 
[Sc|Ci fib]
+20.4 +7.6 44 +20  1000.9  -0.2  698  260           
21 18.06.18 тихо ()   20000 м    6/3 1000 м верхняя 
[Sc|Ci fib]
+17.2 +5.7 47 +17  1001.5  -0.2  698  264           
00 19.06.18 010 (С) 20000 м    9/8 1000 м кучево-дожд., верхняя 
[Cb cap|Ci fib]
+18.6 +6.1 44 +20  1002.3  699  262  +16        сухая 
03 19.06.18 200 (Ю) 20000 м    9/8 1000 м кучево-дожд., верхняя 
[Cb cap|Ci fib]
+22.4 +4.9 32 +22  1002.4  699  260           
06 19.06.18 340 (С) 20000 м    9/8 1000 м кучево-дожд., средняя, верхняя 
[Cb cap|Ac trans|Ci fib]
+28.4 +8.9 29 +29  1000.7  -0.2  699  254           
09 19.06.18 350 (С) 20000 м    9/6 1000 м кучево-дожд., средняя, верхняя 
[Cb cap|Ac trans|Ci fib]
+28.6 +11.5 35 +33  999.5  -1  698  253           
12 19.06.18 020 (С) 20000 м    10/10 600 м кучево-дожд. 
[Cb cap]
+26.6 +11.6 39 +32  999.9  698  254    +29.6       
00 20.06.18 260 (З) 20000 м  слаб. ливневой дождь  10/10 600 м кучево-дожд. 
[Cb cap]
+18 +16.3 90 +32  1006.6  1.5  702  262  +17.2      мокрая 
09 20.06.18 250 (З) 20000 м    9/6 1000 м кучево-дожд., средняя, верхняя 
[Cb cap|Ac trans|Ci sp]
+27.2 +14 44 +36  1002.9  -1.3  701  254           
12 20.06.18 340 (С) 20000 м    9/6 1000 м кучево-дожд., средняя, верхняя 
[Cb cap|Ac trans|Ci fib]
+26.3 +12.6 43 +33  1002.6  -0.5  700  255    +28.3  0.0     
15 20.06.18 350 (С) 20000 м    9/3 1000 м средняя, верхняя 
[Sc|Ac trans|Ci fib]
+21.8 +12.5 55 +28  1004.6  0.8  701  259           
18 20.06.18 020 (С) 10 км    3/0 средняя 
[Ac trans]
+19 +14.2 74 +29  1005.8  0.6  701  261           
21 20.06.18 360 (С) 20000 м    8/0 средняя, верхняя 
[Ac trans|Ci fib]
+16.4 +14.3 87 +27  1006.5  701  264           
00 21.06.18 120 (ЮВ) 20000 м    8/3 1000 м средняя, верхняя 
[Sc|Ac trans|Ci fib]
+18.4 +12.7 69 +27  1006.7  0.6  702  262  +16.2        сухая 
03 21.06.18 030 (СВ) 20000 м    8/3 1000 м средняя, верхняя 
[Sc|Ac trans|Ci fib]
+23.2 +13.8 55 +32  1004.7  -0.7  701  258           
06 21.06.18 350 (С) 20000 м    9/8 1000 м кучево-дожд., средняя, верхняя 
[Cb cap|Ac trans|Ci fib]
+25.3 +13 46 +32  1003.4  -0.7  701  256           
Время (UTC), дата Ветер
(°,м/с) 
Видим.   Явления Облачность Т
(°С)
Тd
(°С)
f(%) Тe
(°С)
Pmin
(гПа)
dP
(гПа)
Po
(мм)
O2
(г/м3)
Тmin Tmax R s Состояние
почвы

Для получения пояснительной информации подведите курсор к названию столбца.

ПОГОДА в Кызыле - архив

Всё, что Вы хотите узнать о погоде в Кызыле - удобно и подробно!

Выберите нужную дату (начиная с 1 января 2015* года) и нажмите кнопку "Найти".
Будут отображены архивные сводки погоды по пункту Кызыл, начиная с указанной даты.


Отображать данные в формате CSV (для использования в таблицах Excel)


Внимание! Наш архив погоды предназначен исключительно для личного некоммерческого использования в познавательных целях. Если Вам необходимы официальные справки о состоянии погоды (для производственных, юридических, коммерческих и т.п. целей), обращайтесь в органы Росгидромета.

*Примечание: данная дата относится к архиву по метеостанциям СССР (Россия, СНГ, Балтия).
Архив по метеостанциям Зарубежной Европы и Азии (кроме Китая) хранится 10 дней, по другим регионам земного шара (Китай, Африка, Америка, Австралия, Океания) - 1 день.

Кызыл - район местоположения метеостанции


Название, широта, долгота, высота метеостанции:
Кызыл 51.7°ш. 94.5°д. 628 м над ур. моря [Российская Федерация]

Дополнительная информация

В oтличие oт бoльшинства пoгoдных сайтoв мы публикуем пoдрoбную метеoинфoрмацию в детальнoм прoфессиoнальнoм фoрмате.

Характеристики температуры и влажнoсти вoздуха измеряются на высoте 2 м в тени вдали oт зданий и деревьев.
Скoрoсть ветра измеряется на высoте 10 м (на урoвне рoста челoвека скoрoсть ветра ниже в 1.5-2 раза). Если метеoстанция нахoдится в гoрoде или в лесу, тo скoрoсть ветра занижена на 2-4 м/с пo сравнению с oткрытым местoм. Скoрoсть ветра над акватoриями крупных рек и oзёр, а также на вершинах хoлмoв на 2-5 м/с выше, чем в oбычных услoвиях.
Атмoсфернoе давление в разных тoчках местнoсти мoжет значительнo oтличаться oт давления на метеoстанции, в зависимoсти oт услoвий рельефа (при пoдъёме на 10 м давление пoнижается примернo на 1 мм рт.ст.).